STARLINK-32761 (62749 NORAD) Tracking and Keplerian Element Data

This shows tracking and keplerian element data for the satellite.

Feedback or suggestion? Click here.




ElementValue
Catalog62749
NameSTARLINK-32761
Epoch Orbit5103
Epoch Day354.01198471
Epoch Year2025
RAAN247.663
Inclination42.9996
Eccentricity0.0001241
Argument of Perigee256.7809
Mean Anonmoly103.2904
Mean Motion15.2758688
Decay Rate0.00020028
L11 62749U 25014Q 25354.01198471 .00020028 00000+0 73520-3 0 9991
L22 62749 42.9996 247.6630 0001241 256.7809 103.2904 15.27586880 51030



Live tracking and technical data element details for STARLINK-32761 (NORAD 62749). STARLINK-32761 can be tracked NOW for your location showing map with azimuth and elevation plus other details from your city location.







IsCatalogInMostPopularTable: catalog: 62749, numindb: 239
Update: records affected: 1



GetName: 62749 STARLINK-32761

Hit Count: updated at: Wed, 15 Apr 2026 01:43:37 GMT